CST,Max TemperatureF,Mean TemperatureF,Min TemperatureF,Max Dew PointF,MeanDew PointF,Min DewpointF,Max Humidity, Mean Humidity, Min Humidity, Max Sea Level PressureIn, Mean Sea Level PressureIn, Min Sea Level PressureIn, Max VisibilityMiles, Mean VisibilityMiles, Min VisibilityMiles, Max Wind SpeedMPH, Mean Wind SpeedMPH, Max Gust SpeedMPH,PrecipitationIn, CloudCover, Events, WindDirDegrees
2013-2-1,28,18,8,14,4,0,67,52,34,30.50,30.38,30.21,10,10,10,18,8,24,0.00,2,,227
2013-2-2,41,34,28,32,21,10,100,61,41,30.20,30.12,30.04,10,10,1,20,8,28,0.14,6,Snow,278
2013-2-3,37,32,26,32,19,9,100,63,33,30.21,30.10,29.98,10,10,0,24,7,32,0.00,1,Fog,344
2013-2-4,57,42,28,34,27,16,93,60,38,29.98,29.87,29.78,10,10,7,18,6,26,0.00,2,,335
2013-2-5,55,39,23,32,29,23,100,73,38,30.14,29.98,29.90,10,8,3,18,4,22,0.00,1,,314
2013-2-6,55,39,23,32,28,23,100,68,33,30.23,30.12,30.02,10,9,3,14,4,16,0.00,0,,131
2013-2-7,50,44,37,46,38,32,100,79,61,30.08,29.96,29.86,10,8,2,23,8,26,0.12,7,Rain,74
2013-2-8,37,34,32,36,30,27,93,83,75,30.37,30.28,30.08,10,8,3,17,9,22,0.00,8,,355
2013-2-9,44,36,28,37,29,27,100,77,53,30.36,30.21,29.99,10,9,3,15,9,16,0.01,6,Rain-Snow,137
2013-2-10,60,48,37,52,40,27,100,74,31,30.00,29.72,29.56,10,8,2,22,12,28,0.08,5,Rain-Snow-Thunderstorm,175
2013-2-11,50,39,28,27,26,23,93,58,37,30.15,30.03,29.83,10,10,10,20,11,34,0.00,1,,288
2013-2-12,44,34,23,32,27,23,100,76,46,30.17,30.07,29.95,10,10,10,7,1,,0.00,2,,123
2013-2-13,51,42,33,32,30,27,87,65,38,29.96,29.87,29.81,10,10,10,15,3,25,0.00,2,,266
2013-2-14,53,42,30,34,31,27,100,67,35,30.08,29.93,29.83,10,10,10,15,4,22,0.00,2,,309
2013-2-15,39,32,26,32,17,9,75,53,30,30.29,30.22,30.08,10,10,10,18,8,24,0.00,3,,326
2013-2-16,35,27,19,18,12,7,80,58,30,30.29,30.22,30.17,10,10,10,13,4,20,0.00,1,,309
2013-2-17,51,38,24,32,21,16,80,52,28,30.17,30.05,29.87,10,10,10,15,5,18,0.00,3,,128
2013-2-18,55,44,32,50,38,23,100,74,58,29.95,29.75,29.54,10,9,2,28,14,38,0.12,4,Rain,181
2013-2-19,32,28,23,25,14,7,75,56,35,30.32,30.14,29.96,10,10,10,25,15,33,0.00,0,,298
2013-2-20,26,20,15,14,10,9,73,59,47,30.42,30.33,30.29,10,10,10,7,3,,0.00,2,,12
2013-2-21,32,28,23,32,22,14,100,82,64,30.32,30.04,29.81,10,6,0,16,6,25,2.31,7,Rain-Snow-Thunderstorm,116
2013-2-22,35,27,19,32,25,18,100,81,60,30.08,29.95,29.79,10,9,2,14,4,22,0.02,5,Rain-Snow,272
2013-2-23,33,20,6,19,15,5,100,78,52,30.07,30.03,29.99,10,9,4,9,1,,0.00,0,,321
2013-2-24,48,30,12,27,20,10,100,70,34,30.11,30.05,30.01,10,9,1,9,2,,0.00,0,,117
2013-2-25,46,39,32,34,28,25,93,67,46,30.05,29.89,29.58,10,9,1,14,4,25,0.54,2,Rain-Snow-Thunderstorm,80
2013-2-26,35,34,32,36,34,32,100,97,87,29.70,29.47,29.34,10,4,1,14,8,25,0.29,7,Rain-Snow,1
2013-2-27,32,32,32,32,31,28,100,96,87,29.92,29.81,29.70,10,4,1,14,10,22,1.63,6,Snow,289
2013-2-28,35,34,32,32,29,27,100,88,75,30.12,30.04,29.92,10,8,2,14,10,21,0.32,7,Snow,302